Regional Weather Roundup
Issued by NWS

Home | Current Version | Previous Version | Graphics & Text | Print | Product List | Glossary On
Versions: 1 2 3 4 5 6 7 8 9 10 11 12 13 14 15 16 17 18 19 20 21 22 23 24 25 26 27 28 29 30 31 32 33 34 35 36 37 38 39 40 41 42 43 44 45 46 47 48 49 50
607
ASUS45 KBOI 121810
RWRID

IDAHO REGIONAL WEATHER ROUNDUP
NATIONAL WEATHER SERVICE BOISE ID
1100 AM MST FRI FEB 12 2016

NOTE: "FAIR" INDICATES FEW OR NO CLOUDS BELOW 12000 FEET
WITH NO SIGNIFICANT WEATHER AND/OR OBSTRUCTIONS TO VISIBILITY

IDZ012-014-121900-
SOUTHWEST IDAHO


CITY           SKY/WX    TMP DP  RH WIND       PRES   REMARKS
BOISE          SUNNY     40  31  70 CALM      30.34S
CALDWELL       SUNNY     37  30  75 CALM      30.36F
MOUNTAIN HOME  SUNNY     39  28  66 SE15      30.34S WCI  30
$$

IDZ016-017-121900-
SOUTHCENTRAL IDAHO


CITY           SKY/WX    TMP DP  RH WIND       PRES   REMARKS
BURLEY           N/A    N/A N/A N/A MISG      30.32S
JEROME         MOSUNNY   31  24  75 NE17      30.32F WCI  19
TWIN FALLS     MOSUNNY   37  32  82 E8        30.32S WCI  31
$$

IDZ019>023-121900-
SOUTHEAST IDAHO


CITY           SKY/WX    TMP DP  RH WIND       PRES   REMARKS
IDAHO FALLS    CLOUDY    28  22  78 NE5       30.36F WCI  23
POCATELLO      CLOUDY    35  24  64 NW5       30.37S WCI  31
REXBURG        CLOUDY    30  27  88 CALM      30.35S
$$

IDZ006-010-011-018-031-032-121900-
CENTRAL IDAHO MOUNTAINS


CITY           SKY/WX    TMP DP  RH WIND       PRES   REMARKS
MCCALL         SUNNY     28  28 100 CALM      30.28S
HAILEY         MOSUNNY   36  27  69 NW7       30.35S WCI  30
STANLEY          N/A     30  21  69 CALM      30.34F
SALMON         CLOUDY    27  23  86 CALM      30.34S
CHALLIS        MOSUNNY   27  21  78 CALM      30.32F
$$

IDZ002-004-006-007-026-121900-
NORTHERN IDAHO


CITY           SKY/WX    TMP DP  RH WIND       PRES   REMARKS
LEWISTON       CLOUDY    49  40  71 E8        30.20F
LOWELL           N/A     44  41  89 CALM      30.28S
COEUR D`ALENE  CLOUDY    39  37  93 NE9       30.16F WCI  33
MULLAN PASS    LGT RAIN  34  34 100 SW8       30.19F WCI  27
$$




USA.gov is the U.S. government's official web portal to all federal, state and local government web resources and services.